TimeCST,TemperatureF,Dew PointF,Humidity,Sea Level PressureIn,VisibilityMPH,Wind Direction,Wind SpeedMPH,Gust SpeedMPH,PrecipitationIn,Events,Conditions,WindDirDegrees,DateUTC
12:15 AM,26.6,19.4,74,29.95,10.0,Calm,Calm,-,N/A,,Clear,0,2013-02-27 06:15:00
12:34 AM,26.6,19.4,74,29.95,10.0,NNW,4.6,-,N/A,,Clear,330,2013-02-27 06:34:00
12:55 AM,26.6,19.4,74,29.94,10.0,NNW,5.8,-,N/A,,Clear,330,2013-02-27 06:55:00
1:15 AM,26.6,17.6,69,29.94,10.0,Calm,Calm,-,N/A,,Clear,0,2013-02-27 07:15:00
1:34 AM,28.4,17.6,64,29.94,10.0,North,3.5,-,N/A,,Clear,350,2013-02-27 07:34:00
1:55 AM,28.4,17.6,64,29.94,10.0,NNW,3.5,-,N/A,,Clear,340,2013-02-27 07:55:00
2:15 AM,26.6,17.6,69,29.95,10.0,Calm,Calm,-,N/A,,Clear,0,2013-02-27 08:15:00
2:34 AM,26.6,17.6,69,29.95,10.0,Calm,Calm,-,N/A,,Clear,0,2013-02-27 08:34:00
2:55 AM,26.6,17.6,69,29.94,10.0,Calm,Calm,-,N/A,,Clear,0,2013-02-27 08:55:00
3:14 AM,26.6,17.6,69,29.93,10.0,NNW,3.5,-,N/A,,Clear,340,2013-02-27 09:14:00
3:35 AM,26.6,17.6,69,29.93,10.0,North,5.8,-,N/A,,Clear,350,2013-02-27 09:35:00
3:55 AM,26.6,17.6,69,29.93,10.0,Calm,Calm,-,N/A,,Clear,0,2013-02-27 09:55:00
4:14 AM,26.6,15.8,64,29.94,10.0,Calm,Calm,-,N/A,,Clear,0,2013-02-27 10:14:00
4:35 AM,26.6,15.8,64,29.94,10.0,North,3.5,-,N/A,,Clear,350,2013-02-27 10:35:00
4:55 AM,26.6,15.8,64,29.93,10.0,North,3.5,-,N/A,,Clear,350,2013-02-27 10:55:00
5:14 AM,26.6,15.8,64,29.93,10.0,Calm,Calm,-,N/A,,Clear,0,2013-02-27 11:14:00
5:35 AM,26.6,15.8,64,29.94,10.0,NNW,4.6,-,N/A,,Clear,340,2013-02-27 11:35:00
5:55 AM,26.6,15.8,64,29.94,10.0,NNW,4.6,-,N/A,,Clear,340,2013-02-27 11:55:00
6:14 AM,26.6,15.8,64,29.94,10.0,North,4.6,-,N/A,,Clear,350,2013-02-27 12:14:00
6:35 AM,26.6,15.8,64,29.94,10.0,NNW,4.6,-,N/A,,Clear,340,2013-02-27 12:35:00
6:54 AM,26.6,14.0,59,29.95,10.0,North,4.6,-,N/A,,Clear,350,2013-02-27 12:54:00
7:15 AM,26.6,14.0,59,29.96,10.0,North,5.8,-,N/A,,Clear,350,2013-02-27 13:15:00
7:35 AM,26.6,14.0,59,29.96,10.0,North,3.5,-,N/A,,Clear,350,2013-02-27 13:35:00
7:54 AM,26.6,14.0,59,29.97,10.0,North,4.6,-,N/A,,Clear,350,2013-02-27 13:54:00
8:15 AM,26.6,14.0,59,29.97,10.0,North,5.8,-,N/A,,Clear,350,2013-02-27 14:15:00
8:35 AM,28.4,14.0,55,29.98,10.0,North,5.8,-,N/A,,Clear,350,2013-02-27 14:35:00
8:54 AM,28.4,14.0,55,29.98,10.0,North,5.8,-,N/A,,Clear,350,2013-02-27 14:54:00
9:15 AM,30.2,15.8,55,29.97,10.0,NNW,5.8,-,N/A,,Clear,340,2013-02-27 15:15:00
9:35 AM,30.2,15.8,55,29.97,10.0,NNW,5.8,-,N/A,,Clear,340,2013-02-27 15:35:00
9:54 AM,32.0,17.6,55,29.97,10.0,North,6.9,-,N/A,,Clear,350,2013-02-27 15:54:00
10:15 AM,32.0,17.6,55,29.97,10.0,North,6.9,-,N/A,,Clear,350,2013-02-27 16:15:00
10:34 AM,32.0,19.4,60,29.97,10.0,NNW,9.2,-,N/A,,Clear,340,2013-02-27 16:34:00
10:55 AM,33.8,19.4,56,29.96,10.0,NNW,8.1,-,N/A,,Clear,340,2013-02-27 16:55:00
11:15 AM,33.8,19.4,56,29.96,10.0,NNW,8.1,-,N/A,,Clear,340,2013-02-27 17:15:00
11:34 AM,33.8,19.4,56,29.95,10.0,NNW,9.2,-,N/A,,Clear,340,2013-02-27 17:34:00
12:15 PM,35.6,19.4,52,29.94,10.0,North,6.9,-,N/A,,Clear,350,2013-02-27 18:15:00
12:34 PM,37.4,19.4,48,29.93,10.0,North,9.2,-,N/A,,Clear,350,2013-02-27 18:34:00
12:55 PM,39.2,19.4,45,29.93,10.0,NNW,9.2,16.1,N/A,,Clear,330,2013-02-27 18:55:00
1:14 PM,37.4,17.6,45,29.92,10.0,NNW,12.7,19.6,N/A,,Clear,330,2013-02-27 19:14:00
1:35 PM,39.2,17.6,42,29.93,10.0,North,8.1,20.7,N/A,,Clear,350,2013-02-27 19:35:00
1:55 PM,41.0,17.6,39,29.92,10.0,North,6.9,18.4,N/A,,Clear,350,2013-02-27 19:55:00
2:14 PM,41.0,17.6,39,29.91,10.0,North,5.8,16.1,N/A,,Clear,350,2013-02-27 20:14:00
2:35 PM,41.0,17.6,39,29.92,10.0,NNW,9.2,17.3,N/A,,Clear,340,2013-02-27 20:35:00
2:55 PM,41.0,19.4,42,29.92,10.0,North,8.1,16.1,N/A,,Clear,350,2013-02-27 20:55:00
3:14 PM,41.0,19.4,42,29.93,10.0,NNW,10.4,16.1,N/A,,Clear,340,2013-02-27 21:14:00
3:35 PM,41.0,19.4,42,29.93,10.0,NNW,9.2,-,N/A,,Clear,340,2013-02-27 21:35:00
3:55 PM,41.0,19.4,42,29.93,10.0,North,5.8,-,N/A,,Clear,350,2013-02-27 21:55:00
4:14 PM,41.0,19.4,42,29.94,10.0,North,8.1,-,N/A,,Clear,350,2013-02-27 22:14:00
4:35 PM,41.0,19.4,42,29.94,10.0,NNW,6.9,-,N/A,,Clear,330,2013-02-27 22:35:00
4:55 PM,39.2,19.4,45,29.94,10.0,NNW,6.9,-,N/A,,Clear,340,2013-02-27 22:55:00
5:14 PM,39.2,19.4,45,29.94,10.0,NNW,5.8,-,N/A,,Clear,330,2013-02-27 23:14:00
5:35 PM,37.4,19.4,48,29.95,10.0,NNW,5.8,-,N/A,,Clear,340,2013-02-27 23:35:00
5:55 PM,37.4,19.4,48,29.96,10.0,NNW,6.9,-,N/A,,Clear,330,2013-02-27 23:55:00
6:14 PM,35.6,21.2,56,29.97,10.0,WNW,8.1,-,N/A,,Clear,290,2013-02-28 00:14:00
6:35 PM,33.8,21.2,60,29.98,10.0,NW,6.9,-,N/A,,Clear,310,2013-02-28 00:35:00
6:55 PM,32.0,21.2,64,29.99,10.0,NW,5.8,-,N/A,,Clear,310,2013-02-28 00:55:00
7:14 PM,32.0,21.2,64,29.99,10.0,NW,3.5,-,N/A,,Clear,320,2013-02-28 01:14:00
7:35 PM,32.0,21.2,64,29.99,10.0,Calm,Calm,-,N/A,,Clear,0,2013-02-28 01:35:00
7:55 PM,30.2,21.2,69,30.00,10.0,Calm,Calm,-,N/A,,Clear,0,2013-02-28 01:55:00
8:14 PM,30.2,21.2,69,30.01,10.0,Calm,Calm,-,N/A,,Clear,0,2013-02-28 02:14:00
8:35 PM,30.2,21.2,69,30.02,10.0,Calm,Calm,-,N/A,,Clear,0,2013-02-28 02:35:00
8:54 PM,32.0,21.2,64,30.03,10.0,Calm,Calm,-,N/A,,Clear,0,2013-02-28 02:54:00
9:15 PM,30.2,21.2,69,30.04,10.0,Calm,Calm,-,N/A,,Clear,0,2013-02-28 03:15:00
9:35 PM,28.4,19.4,69,30.04,10.0,Calm,Calm,-,N/A,,Clear,0,2013-02-28 03:35:00
9:54 PM,28.4,21.2,74,30.04,10.0,Calm,Calm,-,N/A,,Clear,0,2013-02-28 03:54:00
10:15 PM,30.2,21.2,69,30.06,10.0,Calm,Calm,-,N/A,,Mostly Cloudy,0,2013-02-28 04:15:00
10:35 PM,30.2,19.4,64,30.06,10.0,Calm,Calm,-,N/A,,Overcast,0,2013-02-28 04:35:00
10:54 PM,30.2,21.2,69,30.06,10.0,North,3.5,-,N/A,,Overcast,350,2013-02-28 04:54:00
11:14 PM,30.2,21.2,69,30.07,10.0,NNW,3.5,-,N/A,,Overcast,340,2013-02-28 05:14:00
11:35 PM,30.2,21.2,69,30.07,10.0,Calm,Calm,-,N/A,,Overcast,0,2013-02-28 05:35:00